N8DH Weather Reports


Display with metric or nautical units.
time (UTC)temp
F
wind
direction
speed
MPH
gust
MPH
rain 1hr
in
rain 24hr
in
rain mn
in
humidity
%
barometer
mb
20260504050015 50 151 4.0 10.0 0.00 0.00 0.00 66 1004.7
20260504044526 50 163 4.0 9.0 0.00 0.00 0.00 66 1004.8
20260504043034 49 172 3.0 6.0 0.00 0.00 0.00 67 1004.9
20260504041522 49 157 3.0 6.0 0.00 0.00 0.00 68 1005.0
20260504040019 49 168 3.0 6.0 0.00 0.00 0.00 69 1005.2
20260504034520 49 161 3.0 5.0 0.00 0.00 0.00 69 1005.4
20260504033015 50 162 2.0 6.0 0.00 0.00 0.00 68 1005.5
20260504031510 50 153 2.0 6.0 0.00 0.00 0.00 68 1005.6
20260504030021 51 161 3.0 7.0 0.00 0.00 0.00 67 1005.8
20260504024533 51 181 4.0 9.0 0.00 0.00 0.00 67 1005.9
20260504023005 51 191 3.0 7.0 0.00 0.00 0.00 66 1006.0
20260504021522 51 173 3.0 8.0 0.00 0.00 0.00 65 1006.1
20260504020020 51 190 7.0 12.0 0.00 0.00 0.00 63 1006.1
20260504014532 51 179 4.0 10.0 0.00 0.00 0.00 64 1006.2
20260504013031 52 230 4.0 17.0 0.00 0.00 0.00 62 1006.2
20260504011515 52 208 8.0 15.0 0.00 0.00 0.00 60 1006.3
20260504010019 53 238 8.0 17.0 0.00 0.00 0.00 57 1006.1
20260504004511 55 230 5.0 15.0 0.00 0.00 0.00 51 1006.0
20260504003059 55 209 6.0 9.0 0.00 0.00 0.00 48 1005.5
20260504001524 56 198 4.0 13.0 0.00 0.00 0.00 47 1005.5
20260504000019 56 193 6.0 15.0 0.00 0.00 0.00 45 1005.5
20260503234522 57 223 7.0 12.0 0.00 0.00 0.00 44 1005.6
20260503233019 58 193 6.0 14.0 0.00 0.00 0.00 42 1005.7
20260503231513 58 225 7.0 14.0 0.00 0.00 0.00 43 1005.8
20260503230012 58 211 11.0 24.0 0.00 0.00 0.00 43 1005.8
20260503224510 58 219 7.0 24.0 0.00 0.00 0.00 42 1005.9
20260503223012 59 189 8.0 18.0 0.00 0.00 0.00 41 1005.9
20260503221510 59 194 11.0 18.0 0.00 0.00 0.00 42 1006.0
20260503220026 59 207 8.0 18.0 0.00 0.00 0.00 43 1006.0
20260503214524 59 207 13.0 26.0 0.00 0.00 0.00 40 1006.1
20260503213021 60 192 8.0 17.0 0.00 0.00 0.00 42 1006.1
20260503211516 60 250 8.0 27.0 0.00 0.00 0.00 41 1006.2
20260503210016 61 232 9.0 21.0 0.00 0.00 0.00 38 1006.2
20260503204516 60 191 9.0 20.0 0.00 0.00 0.00 41 1006.4
20260503203035 60 251 7.0 26.0 0.00 0.00 0.00 41 1006.5
20260503201510 60 178 9.0 17.0 0.00 0.00 0.00 42 1006.6
20260503200009 60 207 9.0 22.0 0.00 0.00 0.00 43 1006.8
20260503194526 59 190 12.0 19.0 0.00 0.00 0.00 44 1007.0
20260503193027 61 200 8.0 21.0 0.00 0.00 0.00 44 1007.2
20260503191522 59 216 8.0 24.0 0.00 0.00 0.00 44 1007.6
20260503190034 60 221 6.0 22.0 0.00 0.00 0.00 41 1007.8
20260503184524 60 179 9.0 19.0 0.00 0.00 0.00 43 1007.9
20260503183023 60 225 8.0 20.0 0.00 0.00 0.00 45 1008.1
20260503181519 60 221 6.0 20.0 0.00 0.00 0.00 44 1008.2
20260503180014 59 254 7.0 18.0 0.00 0.00 0.00 42 1008.5
20260503174516 58 190 8.0 18.0 0.00 0.00 0.00 46 1008.6
20260503173011 59 190 11.0 17.0 0.00 0.00 0.00 48 1008.8
20260503171511 59 271 6.0 15.0 0.00 0.00 0.00 49 1009.1
20260503081527 37 200 2.0 4.0 0.00 0.07 0.00 77 1010.4